Regional Weather Roundup
Issued by NWS

Home | Current Version | Previous Version | Text Only | Print | Product List | Glossary Off
Versions: 1 2 3 4 5 6 7 8 9 10 11 12 13 14 15 16 17 18 19 20 21 22 23 24 25 26 27 28 29 30 31 32 33 34 35 36 37 38 39 40 41 42 43 44 45 46 47 48 49 50

000
ASUS43 KMKX 241810
RWRWI

WISCONSIN REGIONAL WEATHER ROUNDUP
NATIONAL WEATHER SERVICE MILWAUKEE/SULLIVAN WI
100 PM CDT THU JUL 24 2014

NOTE: "FAIR" INDICATES FEW OR NO CLOUDS BELOW 12,000 FEET WITH NO
SIGNIFICANT WEATHER AND/OR OBSTRUCTIONS TO VISIBILITY.

WIZ001-002-006>008-014>016-023>028-241900-
NORTHWEST WISCONSIN

CITY           SKY/WX    TMP DP  RH WIND       PRES   REMARKS
SUPERIOR ARPT  MOSUNNY   71  60  67 NE7       30.07F
6HR MIN TEMP:  55; 6HR MAX TEMP:  73;

ASHLAND        PTSUNNY   74  56  53 VRB5      30.10F
6HR MIN TEMP:  54; 6HR MAX TEMP:  76;

HAYWARD        CLOUDY    75  50  41 SW6       30.11F
6HR MIN TEMP:  58; 6HR MAX TEMP:  75;

SIREN          PTSUNNY   78  52  39 SW7       30.08F
6HR MIN TEMP:  57; 6HR MAX TEMP:  78;

RICE LAKE      MOSUNNY   76  48  37 S7        30.12F
6HR MIN TEMP:  56; 6HR MAX TEMP:  76;

LADYSMITH      PTSUNNY   75  52  45 CALM      30.14F
6HR MIN TEMP:  57; 6HR MAX TEMP:  75;

EAU CLAIRE     PTSUNNY   78  50  37 MISG      30.10F
6HR MIN TEMP:  58; 6HR MAX TEMP:  80;

MENOMONIE      MOCLDY    77  52  42 S9        30.11S
6HR MIN TEMP:  58; 6HR MAX TEMP:  79;

NEW RICHMOND   MOSUNNY   77  53  43 SW9       30.10F
6HR MIN TEMP:  60; 6HR MAX TEMP:  78;

OSCEOLA        MOSUNNY   77  54  44 S12       30.11F
6HR MIN TEMP:  59; 6HR MAX TEMP:  78;

$$

WIZ003>005-009-010-017-018-241900-
NORTH CENTRAL WISCONSIN

CITY           SKY/WX    TMP DP  RH WIND       PRES   REMARKS
WOODRUFF       MOSUNNY   77  53  42 NW5       30.13F
6HR MIN TEMP:  52; 6HR MAX TEMP:  77;

RHINELANDER    MOSUNNY   70  48  45 VRB5      30.14F
EAGLE RIVER    PTSUNNY   71  46  40 W6        30.13F
6HR MIN TEMP:  48; 6HR MAX TEMP:  71;

LAND O LAKES   MOSUNNY   71  46  40 CALM      30.13F
6HR MIN TEMP:  46; 6HR MAX TEMP:  72;

PHILLIPS       MOSUNNY   73  50  45 CALM      30.12F
6HR MIN TEMP:  55; 6HR MAX TEMP:  73;

TOMAHAWK       PTSUNNY   70  51  50 CALM      30.13F
6HR MIN TEMP:  50; 6HR MAX TEMP:  71;

MEDFORD        MOSUNNY   72  51  47 CALM      30.13F
6HR MIN TEMP:  55; 6HR MAX TEMP:  72;

MERRILL        MOSUNNY   73  51  46 NW5       30.13F
6HR MIN TEMP:  51; 6HR MAX TEMP:  73;

$$

WIZ029-030-035-036-043>047-241900-
CENTRAL WISCONSIN

CITY           SKY/WX    TMP DP  RH WIND       PRES   REMARKS
WAUSAU         PTSUNNY   74  49  41 NW5       30.12F
6HR MIN TEMP:  56; 6HR MAX TEMP:  74;

MOSINEE        MOSUNNY   72  46  40 W7        30.15F
MARSHFIELD     PTSUNNY   75  50  41 MISG      30.13F
6HR MIN TEMP:  57; 6HR MAX TEMP:  75;

STEVENS POINT  MOSUNNY   71  47  43 W5        30.14F
6HR MIN TEMP:  53; 6HR MAX TEMP:  71;

WAUPACA        MOSUNNY   77  49  36 E3        30.15F
6HR MIN TEMP:  57; 6HR MAX TEMP:  78;

WAUTOMA        SUNNY     75  51  42 VRB6      30.15F
6HR MIN TEMP:  55; 6HR MAX TEMP:  76;

WISC RAPIDS    PTSUNNY   77  50  38 VRB7      30.15F
6HR MIN TEMP:  55; 6HR MAX TEMP:  77;

CAMP DOUGLAS   MOSUNNY   75  52  43 N5        30.13F
$$

WIZ011>013-019>022-031-037>040-048>050-241900-
NORTHEAST WISCONSIN

CITY           SKY/WX    TMP DP  RH WIND       PRES   REMARKS
ANTIGO         MOSUNNY   70  51  50 CALM      30.15F
6HR MIN TEMP:  51; 6HR MAX TEMP:  72;

STURGEON BAY   MOSUNNY   70  46  43 CALM      30.16F
6HR MIN TEMP:  54; 6HR MAX TEMP:  70;

GREEN BAY      MOSUNNY   74  50  42 VRB5      30.14F
6HR MIN TEMP:  57; 6HR MAX TEMP:  75;

MANITOWOC      SUNNY     67  45  45 SE10      30.17F
6HR MIN TEMP:  56; 6HR MAX TEMP:  67;

APPLETON       PTSUNNY   72  50  46 VRB6      30.16F
CLINTONVILLE   MOSUNNY   73  50  43 CALM      30.14F
OSHKOSH        MOSUNNY   73  51  46 SE9       30.15F
6HR MIN TEMP:  59; 6HR MAX TEMP:  73;

$$

WIZ032>034-041-042-053>061-241900-
SOUTHWEST WISCONSIN

CITY           SKY/WX    TMP DP  RH WIND       PRES   REMARKS
LA CROSSE      SUNNY     80  52  37 SE7       30.11F HX  80
SPARTA         MOSUNNY   77  46  33 SW6       30.13F
6HR MIN TEMP:  52; 6HR MAX TEMP:  78;

VIROQUA        FAIR      75  53  46 S3        30.15F
6HR MIN TEMP:  58; 6HR MAX TEMP:  76;

BOSCOBEL       MOSUNNY   79  55  43 VRB5      30.14F
6HR MIN TEMP:  56; 6HR MAX TEMP:  80;

PRAIRIE DU CHI MOSUNNY   77  54  45 SW7       30.13F
6HR MIN TEMP:  59; 6HR MAX TEMP:  77;

PLATTEVILLE    FAIR      74  55  51 SW7       30.17F
6HR MIN TEMP:  58; 6HR MAX TEMP:  75;

$$

WIZ056-057-062-063-064-067-068-241900-
SOUTH CENTRAL WISCONSIN

CITY           SKY/WX    TMP DP  RH WIND       PRES   REMARKS
BARABOO/DELLS  MOSUNNY   76  51  41 CALM      30.14F
6HR MIN TEMP:  54; 6HR MAX TEMP:  76;

LONE ROCK      MOSUNNY   79  56  45 CALM      30.15F HX  80
6HR MIN TEMP:  61; 6HR MAX TEMP:  80;

WATERTOWN      PTSUNNY   73  52  47 SE5       30.16F
6HR MIN TEMP:  55; 6HR MAX TEMP:  74;

MADISON        PTSUNNY   74  52  46 CALM      30.15F
6HR MIN TEMP:  58; 6HR MAX TEMP:  76;

MIDDLETON      FAIR      75  49  39 NW3       30.15F
6HR MIN TEMP:  54; 6HR MAX TEMP:  76;

MONROE         MOSUNNY   73  52  46 NE6       30.15F
JANESVILLE     SUNNY     75  46  35 E9        30.15F
$$

WIZ051-052-058>065-066-070>072-241900-
SOUTHEAST WISCONSIN

CITY           SKY/WX    TMP DP  RH WIND       PRES   REMARKS
MILWAUKEE      MOSUNNY   69  52  54 SE8       30.18F
6HR MIN TEMP:  59; 6HR MAX TEMP:  69;

WAUKESHA       MOSUNNY   70  45  40 SE5       30.18F
MILWAUKEE/TIMM NOT AVBL
RACINE         SUNNY     68  53  58 SE7       30.20S
6HR MIN TEMP:  58; 6HR MAX TEMP:  70;

BURLINGTON     SUNNY     70  49  47 E6        30.17F
6HR MIN TEMP:  51; 6HR MAX TEMP:  70;

KENOSHA        SUNNY     70  50  49 E6        30.18F
6HR MIN TEMP:  57; 6HR MAX TEMP:  71;

FOND DU LAC    MOSUNNY   74  51  44 CALM      30.16F
6HR MIN TEMP:  56; 6HR MAX TEMP:  76;

SHEBOYGAN      SUNNY     70  46  42 MISG      30.17F
6HR MIN TEMP:  56; 6HR MAX TEMP:  71;

WEST BEND      MOSUNNY   70  46  43 SE6       30.17F
JUNEAU         PTSUNNY   72  45  38 W5        30.17F
6HR MIN TEMP:  55; 6HR MAX TEMP:  72;

$$

LSZ147-162-241900-
LAKE SUPERIOR

STATION/POSITION TIME  TEMP    WIND        PRES    WAVE
                       AIR SEA DIR/SP/G            HT/PER
                 (UTC) (F)     (DEG/KT/KT) (MB)    (FT/S)
$$

LMZ867-665-643>646-241900-
LAKE MICHIGAN

STATION/POSITION TIME  TEMP    WIND        PRES    WAVE
                       AIR SEA DIR/SP/G            HT/PER
                 (UTC) (F)     (DEG/KT/KT) (MB)    (FT/S)
$$

TC  - TEMPERATURE IN CELSIUS
VSB - VISIBILITY IN STATUTE MILES
WCI - WIND CHILL INDEX
HX  - HEAT INDEX



USA.gov is the U.S. government's official web portal to all federal, state and local government web resources and services.